Volver al catálogo

ONEWEB-0571

ActivoComunicacionesPO
NORAD 55150·PAYLOAD·🇬🇧 United Kingdom

Lanzado Jan 10, 2023 desde Cape Canaveral Space Force Station

Loading…

Próximos Pases (próximas 24 horas)

TLE

ActualizadoSource: CelesTrak SupGP

Época: Sep 14, 2026, 19:34 UTC

1 55150C 23004L   26257.81546713 -.00002633  00000+0 -66858-2 0  2579
2 55150  87.9155 317.6561 0000844  73.7579 322.9501 13.18687047    14

Sigue ONEWEB-0571 en tiempo real con AllMySat

Download on the App Store